TimeCDT,TemperatureF,Dew PointF,Humidity,Sea Level PressureIn,VisibilityMPH,Wind Direction,Wind SpeedMPH,Gust SpeedMPH,PrecipitationIn,Events,Conditions,WindDirDegrees,DateUTC
12:15 AM,36.5,31.1,81,30.05,10.0,Calm,Calm,-,N/A,,Clear,0,2012-10-31 05:15:00
12:35 AM,35.8,31.3,84,30.05,10.0,Calm,Calm,-,N/A,,Clear,0,2012-10-31 05:35:00
12:55 AM,35.6,31.6,85,30.05,10.0,Calm,Calm,-,N/A,,Scattered Clouds,0,2012-10-31 05:55:00
1:15 AM,36.7,31.5,81,30.05,10.0,Calm,Calm,-,N/A,,Mostly Cloudy,0,2012-10-31 06:15:00
1:35 AM,34.7,30.7,85,30.06,10.0,Calm,Calm,-,N/A,,Scattered Clouds,0,2012-10-31 06:35:00
1:55 AM,34.7,30.2,84,30.06,10.0,Calm,Calm,-,N/A,,Clear,0,2012-10-31 06:55:00
2:15 AM,35.2,30.2,82,30.06,10.0,Calm,Calm,-,N/A,,Clear,0,2012-10-31 07:15:00
2:35 AM,34.2,29.5,83,30.05,10.0,Calm,Calm,-,N/A,,Clear,0,2012-10-31 07:35:00
2:55 AM,32.9,28.9,85,30.06,10.0,Calm,Calm,-,N/A,,Clear,0,2012-10-31 07:55:00
3:15 AM,32.0,28.8,88,30.06,10.0,West,3.5,-,N/A,,Clear,280,2012-10-31 08:15:00
3:35 AM,31.6,29.1,90,30.06,10.0,West,4.6,-,N/A,,Clear,270,2012-10-31 08:35:00
3:55 AM,32.0,28.9,88,30.06,10.0,Calm,Calm,-,N/A,,Clear,0,2012-10-31 08:55:00
4:35 AM,32.7,28.8,85,30.06,10.0,Calm,Calm,-,N/A,,Scattered Clouds,0,2012-10-31 09:35:00
4:55 AM,30.4,27.5,89,30.06,10.0,Calm,Calm,-,N/A,,Scattered Clouds,0,2012-10-31 09:55:00
5:15 AM,31.5,28.4,88,30.06,10.0,Calm,Calm,-,N/A,,Scattered Clouds,0,2012-10-31 10:15:00
5:35 AM,31.5,28.0,87,30.06,10.0,Calm,Calm,-,N/A,,Clear,0,2012-10-31 10:35:00
5:55 AM,32.0,28.0,85,30.05,10.0,Calm,Calm,-,N/A,,Clear,0,2012-10-31 10:55:00
6:15 AM,32.0,28.0,85,30.05,10.0,Calm,Calm,-,N/A,,Clear,0,2012-10-31 11:15:00
6:35 AM,31.8,28.2,87,30.04,10.0,Calm,Calm,-,N/A,,Clear,0,2012-10-31 11:35:00
6:55 AM,30.9,28.2,90,30.05,10.0,Calm,Calm,-,N/A,,Clear,0,2012-10-31 11:55:00
7:15 AM,31.8,28.2,87,30.05,10.0,Calm,Calm,-,N/A,,Clear,0,2012-10-31 12:15:00
7:35 AM,32.0,28.2,86,30.05,10.0,Calm,Calm,-,N/A,,Clear,0,2012-10-31 12:35:00
7:55 AM,30.9,27.7,88,30.06,10.0,Calm,Calm,-,N/A,,Clear,0,2012-10-31 12:55:00
8:15 AM,30.0,27.3,90,30.06,5.0,Calm,Calm,-,N/A,,Clear,0,2012-10-31 13:15:00
8:35 AM,31.5,28.2,88,30.06,10.0,Calm,Calm,-,N/A,,Clear,0,2012-10-31 13:35:00
8:55 AM,33.1,29.5,87,30.07,10.0,Calm,Calm,-,N/A,,Clear,0,2012-10-31 13:55:00
9:15 AM,34.9,31.3,87,30.07,10.0,Calm,Calm,-,N/A,,Clear,0,2012-10-31 14:15:00
9:35 AM,38.1,32.0,79,30.07,10.0,Calm,Calm,-,N/A,,Clear,0,2012-10-31 14:35:00
9:55 AM,41.7,32.2,69,30.06,10.0,Calm,Calm,-,N/A,,Clear,0,2012-10-31 14:55:00
10:15 AM,44.1,32.5,64,30.07,10.0,SSE,4.6,-,N/A,,Clear,150,2012-10-31 15:15:00
10:35 AM,45.7,32.5,60,30.06,10.0,SSE,4.6,-,N/A,,Clear,160,2012-10-31 15:35:00
10:55 AM,47.7,32.2,55,30.06,10.0,South,5.8,-,N/A,,Clear,190,2012-10-31 15:55:00
11:15 AM,48.9,31.6,51,30.06,10.0,South,5.8,-,N/A,,Clear,190,2012-10-31 16:15:00
11:35 AM,49.6,30.9,49,30.06,10.0,South,5.8,-,N/A,,Clear,190,2012-10-31 16:35:00
11:55 AM,51.1,31.3,47,30.06,10.0,South,5.8,-,N/A,,Clear,180,2012-10-31 16:55:00
12:15 PM,51.4,31.1,46,30.06,10.0,South,6.9,-,N/A,,Clear,190,2012-10-31 17:15:00
12:35 PM,52.9,31.3,44,30.05,10.0,South,8.1,-,N/A,,Clear,190,2012-10-31 17:35:00
12:55 PM,54.5,32.4,43,30.04,10.0,South,5.8,-,N/A,,Clear,170,2012-10-31 17:55:00
1:15 PM,55.0,31.5,41,30.04,10.0,South,4.6,-,N/A,,Clear,180,2012-10-31 18:15:00
1:55 PM,56.3,32.0,40,30.02,10.0,South,4.6,-,N/A,,Clear,180,2012-10-31 18:55:00
2:15 PM,57.4,32.4,39,30.01,10.0,South,5.8,-,N/A,,Clear,170,2012-10-31 19:15:00
2:35 PM,58.5,32.7,38,30.00,10.0,SSW,4.6,-,N/A,,Clear,200,2012-10-31 19:35:00
2:55 PM,59.5,32.9,37,29.99,10.0,Calm,Calm,-,N/A,,Clear,0,2012-10-31 19:55:00
3:15 PM,59.9,33.1,36,29.99,10.0,SSW,3.5,-,N/A,,Clear,200,2012-10-31 20:15:00
3:35 PM,60.6,33.8,37,29.98,10.0,SSE,4.6,-,N/A,,Clear,160,2012-10-31 20:35:00
3:55 PM,60.4,34.2,37,29.98,10.0,Calm,Calm,-,N/A,,Clear,0,2012-10-31 20:55:00
4:15 PM,60.1,33.8,37,29.98,10.0,Calm,Calm,-,N/A,,Clear,0,2012-10-31 21:15:00
4:35 PM,59.9,34.2,38,29.98,10.0,Calm,Calm,-,N/A,,Clear,0,2012-10-31 21:35:00
4:55 PM,60.3,34.2,38,29.98,10.0,Calm,Calm,-,N/A,,Clear,0,2012-10-31 21:55:00
5:15 PM,59.2,34.2,39,29.98,10.0,Calm,Calm,-,N/A,,Clear,0,2012-10-31 22:15:00
5:35 PM,59.4,36.3,42,29.99,10.0,Calm,Calm,-,N/A,,Clear,0,2012-10-31 22:35:00
5:55 PM,58.1,35.2,42,29.99,10.0,Calm,Calm,-,N/A,,Clear,0,2012-10-31 22:55:00
6:15 PM,56.5,34.9,44,29.99,10.0,Calm,Calm,-,N/A,,Clear,0,2012-10-31 23:15:00
6:35 PM,53.6,34.7,49,29.99,10.0,Calm,Calm,-,N/A,,Clear,0,2012-10-31 23:35:00
7:15 PM,51.6,35.4,54,29.99,10.0,Calm,Calm,-,N/A,,Clear,0,2012-11-01 00:15:00
7:35 PM,49.1,36.3,61,29.99,10.0,SE,3.5,-,N/A,,Clear,140,2012-11-01 00:35:00
7:55 PM,50.4,36.0,58,30.00,7.0,Calm,Calm,-,N/A,,Clear,0,2012-11-01 00:55:00
8:15 PM,49.6,36.0,59,29.99,10.0,Calm,Calm,-,N/A,,Clear,0,2012-11-01 01:15:00
8:35 PM,48.2,36.0,63,29.99,10.0,Calm,Calm,-,N/A,,Clear,0,2012-11-01 01:35:00
9:15 PM,45.3,36.5,71,29.99,10.0,Calm,Calm,-,N/A,,Clear,0,2012-11-01 02:15:00
9:35 PM,44.6,36.0,72,29.99,10.0,Calm,Calm,-,N/A,,Clear,0,2012-11-01 02:35:00
10:15 PM,43.0,35.6,75,29.99,10.0,Calm,Calm,-,N/A,,Mostly Cloudy,0,2012-11-01 03:15:00
10:35 PM,43.0,35.6,75,29.99,10.0,Calm,Calm,-,N/A,,Mostly Cloudy,0,2012-11-01 03:35:00
10:55 PM,42.4,36.3,79,29.99,10.0,Calm,Calm,-,N/A,,Mostly Cloudy,0,2012-11-01 03:55:00
11:15 PM,43.7,36.9,77,29.99,10.0,Calm,Calm,-,N/A,,Overcast,0,2012-11-01 04:15:00
11:35 PM,45.1,37.6,75,29.98,10.0,Calm,Calm,-,N/A,,Overcast,0,2012-11-01 04:35:00
11:55 PM,44.8,38.7,79,29.98,10.0,Calm,Calm,-,N/A,,Overcast,0,2012-11-01 04:55:00